Location: Houston
(29.7630°N, 95.3630°W)
Time: 20:58:30
(UTC-05:00)

Saudisat 1A - Visible Passes

Search period start: 16 October 2017 00:00
Search period end: 26 October 2017 00:00
Orbit: 584 x 608 km, 64.6° (Epoch: 16 October)

Date Brightness Start Highest point End Pass type
(mag) Time Alt. Az. Time Alt. Az. Time Alt. Az.
16 Oct 10.7 06:34:31 10° N 06:37:36 19° NE 06:40:40 10° E visible
17 Oct 9.7 06:43:38 10° N 06:47:38 34° ENE 06:51:34 10° SE visible
18 Oct 8.3 06:53:12 10° NNW 06:57:33 69° ENE 07:01:50 10° SE visible
18 Oct 10.3 20:52:13 10° SSW 20:53:09 16° SSW 20:53:09 16° SSW visible
19 Oct 11.0 05:26:10 10° NNE 05:27:38 11° NE 05:29:06 10° ENE visible
19 Oct 10.0 19:26:56 10° ESE 19:27:34 10° ESE 19:27:34 10° ESE visible
19 Oct 9.8 21:02:09 10° SW 21:04:18 27° SW 21:04:18 27° SW visible
20 Oct 10.4 05:34:26 10° N 05:37:45 21° NE 05:41:03 10° ESE visible
20 Oct 9.3 19:33:54 10° SSE 19:37:13 21° ESE 19:38:39 18° E visible
20 Oct 10.1 21:12:39 10° WSW 21:15:23 25° W 21:15:23 25° W visible
21 Oct 9.3 05:44:24 14° N 05:47:45 39° ENE 05:51:48 10° SE visible
21 Oct 8.4 19:42:46 10° S 19:46:56 42° ESE 19:49:38 20° NE visible
21 Oct 10.8 21:23:52 10° W 21:26:22 15° NW 21:26:22 15° NW visible
22 Oct 8.0 05:55:25 28° NNW 05:57:39 80° ENE 06:01:58 10° SSE visible
22 Oct 7.9 19:52:18 10° SSW 19:56:43 87° ESE 20:00:26 15° NNE visible
23 Oct 11.3 04:29:47 10° E 04:29:47 10° E 04:29:50 10° E visible
23 Oct 8.1 06:06:32 41° WNW 06:07:28 48° WSW 06:11:36 10° S visible
23 Oct 9.0 20:02:21 10° SW 20:06:35 46° WNW 20:10:52 10° NNE visible
24 Oct 11.0 04:40:57 12° ESE 04:40:57 12° ESE 04:41:23 10° ESE visible
24 Oct 9.2 06:17:41 23° WSW 06:17:41 23° WSW 06:20:38 10° SSW visible
24 Oct 10.2 20:12:57 10° WSW 20:16:34 24° NW 20:20:12 10° N visible
25 Oct 10.8 20:24:24 10° W 20:26:39 14° NW 20:28:53 10° NNW visible
